Orbital Elements at Epoch 2459200.5 (2020-Dec-17.0) TDB
Reference: JPL 24 (heliocentric ecliptic J2000)
Element | Value | Uncertainty (1-sigma) | Units |
e | .1189600270644793 | 3.9138e-08 | |
a | 2.38093993423722 | 9.4712e-09 | au |
q | 2.097703255221461 | 9.2999e-08 | au |
i | 3.584806196258052 | 4.3227e-06 | deg |
node | 332.8966185346505 | 6.6345e-05 | deg |
peri | 112.7705668547342 | 6.8919e-05 | deg |
M | 114.5085346847554 | 1.7323e-05 | deg |
tp | 2458773.668520112573 (2019-Oct-17.16852011) | 6.4513e-05 | TDB |
period | 1341.902882457639 3.67 | 8.007e-06 2.192e-08 | d yr |
n | .2682757483467619 | 1.6008e-09 | deg/d |
Q | 2.664176613252979 | 1.0598e-08 | au |
|
| | Orbit Determination Parameters
Additional Information
|